[[{"header":{"parameterUnit":"m.s-1","parameterCategory":1,"la1":30.2991,"la2":30.254,"lo1":-89.0895,"lo2":-89.0444,"dy":0.0017,"dx":0.0017,"nx":28,"ny":28,"refTime":"2024-04-05T09:00:00:Z","depth":0,"parameterNumber":2,"parameterNumberName":"U-component_of_WINDS"},"data":[0,0,0,0,0,0,0,0,0,0,0,0,0,0,0,0,0,0,0,0,0,0,0,0,0,0,0,0,0,0,0,0,0,0,0,0,0,0,0,0,0,0,0,0,0,0,0,0,0,0,0,0,0,0,0,0,0,0,-0.758,-0.758,0,-0.7575,-0.7575,-0.7575,-0.7558,-0.7558,-0.7557,-0.7557,-0.7552,-0.7552,-0.7552,0,0,0,0,0,0,0,0,0,0,0,0,0,-0.7573,-0.7574,-0.758,-0.758,-0.758,-0.7575,-0.7575,-0.7575,-0.7558,-0.7558,-0.7557,-0.7557,-0.7552,-0.7552,-0.7552,0,0,0,0,0,0,0,0,0,0,0,0,0,-0.7573,-0.7574,-0.758,-0.7571,-0.757,-0.7575,-0.7575,-0.7575,-0.7558,-0.7558,-0.7557,-0.7557,-0.7552,-0.7552,-0.7552,-0.7566,0,0,-0.7553,-0.7553,0,0,0,0,0,0,0,0,-0.7573,-0.7573,-0.7572,-0.7572,-0.7571,-0.7567,-0.7571,-0.7572,-0.7558,-0.7563,-0.7557,-0.7556,-0.7557,-0.7557,-0.7557,-0.7565,-0.7565,-0.7553,-0.7553,-0.7554,-0.7554,0,0,0,0,0,0,0,-0.7573,-0.7574,-0.7578,-0.7572,-0.7571,-0.7567,-0.7566,-0.7571,-0.7563,-0.7562,-0.7561,-0.7561,-0.7557,-0.7557,-0.7557,-0.7565,-0.7553,-0.7554,-0.7554,-0.7554,-0.7582,-0.7582,0,0,0,0,0,0,-0.7575,-0.7574,-0.7578,-0.7578,-0.7571,-0.7567,-0.7566,-0.7568,-0.7563,-0.7562,-0.7561,-0.756,-0.7557,-0.7557,-0.7557,-0.7571,-0.7554,-0.7554,-0.7554,-0.7581,-0.7582,-0.7583,0,0,0,0,0,0,-0.7575,-0.7575,-0.7578,-0.7575,-0.7575,-0.7568,-0.757,-0.7569,-0.7569,-0.7562,-0.7561,-0.7563,-0.7556,-0.7556,-0.7563,-0.757,-0.7554,-0.7554,-0.7581,-0.7582,-0.7582,-0.76,0,0,0,0,0,0,-0.7575,-0.7575,-0.7581,-0.7576,-0.7576,-0.7585,-0.7571,-0.7569,-0.757,-0.7568,-0.7564,-0.7562,-0.7556,-0.7563,-0.7563,-0.7571,-0.7555,-0.758,-0.7581,-0.7582,-0.7599,-0.7601,-0.7603,0,0,0,0,0,-0.7574,-0.7586,-0.7581,-0.7582,-0.7582,-0.7586,-0.7586,-0.7578,-0.7571,-0.7575,-0.7571,-0.7563,-0.757,-0.7564,-0.7564,-0.7572,-0.7579,-0.7581,-0.7582,-0.7598,-0.7601,-0.7603,0,0,0,0,0,0,-0.7593,-0.7586,-0.758,-0.7591,-0.7589,-0.7583,-0.7589,-0.7582,-0.7582,-0.7581,-0.7571,-0.757,-0.7578,-0.7576,-0.7569,-0.7583,-0.7573,-0.7574,-0.7585,-0.7588,-0.759,-0.759,-0.7555,0,0,0,0,0,-0.7598,-0.7602,-0.7595,-0.7605,-0.7605,-0.7597,-0.7598,-0.7592,-0.759,-0.7589,-0.7585,-0.7583,-0.7585,-0.7586,-0.7587,-0.7598,-0.7596,-0.7603,-0.7606,-0.7608,-0.7609,-0.7613,-0.7615,-0.7587,-0.7587,-0.7587,0,0,-0.761,-0.7606,-0.7609,-0.7609,-0.7607,-0.761,-0.7597,-0.7601,-0.7603,-0.759,-0.7596,-0.7593,-0.759,-0.7598,-0.7602,-0.7596,-0.7616,-0.7609,-0.7611,-0.7611,-0.7614,-0.7617,-0.7619,-0.7587,-0.7587,-0.7587,0,0,-0.7631,-0.763,-0.7637,-0.7635,-0.7632,-0.7626,-0.7628,-0.7623,-0.762,-0.7626,-0.7615,-0.7617,-0.7621,-0.7619,-0.7618,-0.7637,-0.7629,-0.7638,-0.765,-0.7654,-0.7656,-0.7658,-0.7664,-0.7666,-0.7639,-0.7639,-0.7639,0,-0.7646,-0.7651,-0.7642,-0.7646,-0.7646,-0.7634,-0.7641,-0.7639,-0.7637,-0.7636,-0.763,-0.7633,-0.763,-0.7637,-0.7642,-0.7642,-0.7643,-0.7638,-0.7657,-0.7658,-0.766,-0.7665,-0.7668,-0.764,-0.764,-0.764,-0.764,0,-0.7668,-0.7671,-0.7677,-0.7675,-0.7675,-0.7681,-0.7672,-0.7674,-0.7667,-0.7662,-0.7667,-0.7663,-0.7662,-0.7664,-0.7658,-0.7669,-0.7666,-0.7658,-0.7648,-0.7664,-0.7669,-0.7671,-0.7641,-0.7641,-0.7641,-0.764,0,0,-0.7702,-0.7693,-0.7696,-0.7693,-0.7688,-0.769,-0.7695,-0.7694,-0.7695,-0.7693,-0.7696,-0.7698,-0.7691,-0.769,-0.7683,-0.7687,-0.77,-0.7679,-0.7679,-0.7682,-0.7711,-0.7716,-0.7719,-0.7695,-0.7695,-0.7696,-0.7711,0,-0.7722,-0.7729,-0.7721,-0.773,-0.7732,-0.772,-0.7723,-0.772,-0.7715,-0.7716,-0.771,-0.7711,-0.7702,-0.7701,-0.7704,-0.7698,-0.7706,-0.7697,-0.7697,-0.7697,-0.7697,-0.7721,-0.7727,-0.7742,-0.7713,-0.7713,-0.7713,0,-0.7746,-0.7745,-0.7754,-0.7747,-0.7747,-0.7751,-0.7749,-0.775,-0.7745,-0.7741,-0.7739,-0.7731,-0.7734,-0.7724,-0.7727,-0.7721,-0.772,-0.7717,-0.7718,-0.7717,-0.7706,-0.772,-0.7746,-0.7748,-0.7716,-0.7716,-0.7716,0,-0.7769,-0.777,-0.7775,-0.7773,-0.7765,-0.7768,-0.7765,-0.7759,-0.7759,-0.7757,-0.7756,-0.7754,-0.7753,-0.7751,-0.7742,-0.7736,-0.7746,-0.7736,-0.7742,-0.7742,-0.7745,-0.7744,-0.777,-0.7745,-0.7745,-0.7745,-0.7745,0,-0.7792,-0.7798,-0.7785,-0.7788,-0.7793,-0.7783,-0.7789,-0.7784,-0.7779,-0.7781,-0.777,-0.7771,-0.776,-0.7759,-0.7752,-0.7755,-0.7755,-0.7751,-0.7749,-0.7752,-0.7752,-0.7751,-0.7749,-0.7746,-0.7746,-0.7746,-0.7745,0,-0.7818,-0.781,-0.7814,-0.7806,-0.7804,-0.7808,-0.78,-0.7802,-0.7796,-0.7798,-0.7798,-0.7788,-0.7787,-0.7778,-0.7775,-0.777,-0.7775,-0.7772,-0.7777,-0.7775,-0.7782,-0.7781,-0.7807,-0.7809,-0.7784,-0.7784,-0.7784,0,-0.7833,-0.7837,-0.7829,-0.7829,-0.7826,-0.7826,-0.7825,-0.7814,-0.7814,-0.7808,-0.781,-0.7808,-0.7806,-0.7805,-0.7797,-0.7794,-0.779,-0.7799,-0.779,-0.7792,-0.7789,-0.7789,-0.7788,-0.7801,-0.7802,-0.7802,-0.7802,0,-0.786,-0.7855,-0.7854,-0.7851,-0.785,-0.7848,-0.7844,-0.7845,-0.7833,-0.7833,-0.7831,-0.7829,-0.7826,-0.7824,-0.7819,-0.7815,-0.7806,-0.7805,-0.7806,-0.7809,-0.7811,-0.7809,-0.7781,-0.7805,-0.7804,-0.7804,-0.7804,-0.7804,-0.7881,-0.7883,-0.7877,-0.7876,-0.7872,-0.7868,-0.7869,-0.7863,-0.7861,-0.7857,-0.7851,-0.785,-0.7844,-0.7837,-0.7833,-0.7832,-0.7827,-0.7829,-0.783,-0.783,-0.7831,-0.7812,-0.7831,-0.7831,-0.7831,-0.7831,-0.7831,0,-0.7906,-0.7901,-0.79,-0.7895,-0.7894,-0.7885,-0.7881,-0.788,-0.7879,-0.7874,-0.7872,-0.7869,-0.7867,-0.7858,-0.7854,-0.7855,-0.7851,-0.7854,-0.7854,-0.7852,-0.7836,-0.7835,-0.7857,-0.7857,-0.7857,-0.7857,-0.7857,-0.7857,-0.7919,-0.7922,-0.7916,-0.7916,-0.7911,-0.791,-0.7908,-0.7905,-0.79,-0.7898,-0.7895,-0.789,-0.7883,-0.7878,-0.7875,-0.7872,-0.7871,-0.7875,-0.7872,-0.7856,-0.7854,-0.7851,-0.785,-0.7876,-0.7876,-0.7888,-0.7888,-0.7888]},{"header":{"parameterUnit":"m.s-1","parameterCategory":1,"la1":30.2991,"la2":30.254,"lo1":-89.0895,"lo2":-89.0444,"dy":0.0017,"dx":0.0017,"nx":28,"ny":28,"refTime":"2024-04-05T09:00:00:Z","depth":0,"parameterNumber":3,"parameterNumberName":"V-component_of_WINDS"},"data":[0,0,0,0,0,0,0,0,0,0,0,0,0,0,0,0,0,0,0,0,0,0,0,0,0,0,0,0,0,0,0,0,0,0,0,0,0,0,0,0,0,0,0,0,0,0,0,0,0,0,0,0,0,0,0,0,0,0,-2.0369,-2.0369,0,-2.0404,-2.0404,-2.0404,-2.0417,-2.0417,-2.0417,-2.0416,-2.045,-2.0451,-2.0452,0,0,0,0,0,0,0,0,0,0,0,0,0,-2.031,-2.0311,-2.0369,-2.0369,-2.037,-2.0404,-2.0404,-2.0405,-2.0417,-2.0417,-2.0417,-2.0416,-2.045,-2.0451,-2.0452,0,0,0,0,0,0,0,0,0,0,0,0,0,-2.0339,-2.0312,-2.0369,-2.038,-2.0381,-2.0403,-2.0404,-2.0405,-2.0417,-2.0417,-2.0417,-2.0416,-2.0449,-2.0451,-2.0452,-2.0465,0,0,-2.0457,-2.0458,0,0,0,0,0,0,0,0,-2.0338,-2.0341,-2.0378,-2.0379,-2.0381,-2.0406,-2.0396,-2.0425,-2.0417,-2.0403,-2.0416,-2.0416,-2.0435,-2.0438,-2.0445,-2.0467,-2.0468,-2.0457,-2.0458,-2.0459,-2.0459,0,0,0,0,0,0,0,-2.0336,-2.034,-2.0382,-2.0378,-2.038,-2.0382,-2.0386,-2.0401,-2.042,-2.0404,-2.0405,-2.041,-2.0436,-2.0443,-2.0446,-2.0469,-2.0457,-2.0458,-2.0459,-2.046,-2.0502,-2.0502,0,0,0,0,0,0,-2.0332,-2.0338,-2.0381,-2.0384,-2.0358,-2.0384,-2.0388,-2.0398,-2.042,-2.0423,-2.041,-2.041,-2.0441,-2.0444,-2.0447,-2.0463,-2.0459,-2.046,-2.0461,-2.0502,-2.0502,-2.0502,0,0,0,0,0,0,-2.0331,-2.0336,-2.038,-2.0361,-2.0367,-2.0385,-2.0396,-2.0399,-2.0406,-2.0424,-2.0427,-2.0414,-2.0441,-2.0445,-2.0461,-2.0465,-2.0461,-2.0462,-2.0502,-2.0502,-2.0502,-2.0496,0,0,0,0,0,0,-2.0329,-2.0335,-2.0341,-2.0361,-2.0368,-2.0394,-2.0396,-2.0399,-2.0409,-2.041,-2.0428,-2.0431,-2.0441,-2.0458,-2.0462,-2.0467,-2.0463,-2.0501,-2.0502,-2.0502,-2.0496,-2.0496,-2.0496,0,0,0,0,0,-2.0327,-2.0337,-2.0341,-2.0346,-2.0376,-2.0394,-2.0398,-2.0409,-2.0409,-2.0415,-2.0426,-2.0431,-2.0463,-2.046,-2.0464,-2.0469,-2.0501,-2.0502,-2.0502,-2.0496,-2.0496,-2.0496,0,0,0,0,0,0,-2.0317,-2.034,-2.0345,-2.0362,-2.0376,-2.0396,-2.0403,-2.0409,-2.0423,-2.0423,-2.0436,-2.044,-2.0454,-2.0463,-2.0459,-2.0482,-2.0483,-2.0484,-2.0476,-2.0476,-2.0476,-2.0474,-2.0465,0,0,0,0,0,-2.0316,-2.033,-2.035,-2.0363,-2.037,-2.0385,-2.0394,-2.0402,-2.0416,-2.0422,-2.0434,-2.0447,-2.046,-2.0469,-2.0482,-2.0497,-2.0501,-2.0502,-2.0503,-2.0503,-2.0504,-2.0511,-2.0512,-2.0504,-2.0504,-2.0504,0,0,-2.0316,-2.0331,-2.0339,-2.0362,-2.0373,-2.0386,-2.039,-2.0404,-2.0414,-2.0424,-2.0439,-2.0449,-2.0464,-2.048,-2.0487,-2.0487,-2.0507,-2.0503,-2.0503,-2.0504,-2.0512,-2.0513,-2.0513,-2.0504,-2.0504,-2.0504,0,0,-2.0322,-2.0335,-2.0348,-2.0359,-2.0377,-2.0387,-2.039,-2.0409,-2.0415,-2.0432,-2.0439,-2.045,-2.0473,-2.0483,-2.0492,-2.0501,-2.0506,-2.0505,-2.0505,-2.0513,-2.0514,-2.0514,-2.0517,-2.0518,-2.0506,-2.0506,-2.0506,0,-2.032,-2.034,-2.0353,-2.0366,-2.0376,-2.0386,-2.0398,-2.0409,-2.0429,-2.0435,-2.0436,-2.0464,-2.0475,-2.0493,-2.0495,-2.0501,-2.0504,-2.0503,-2.0513,-2.0513,-2.0514,-2.0517,-2.0518,-2.0506,-2.0506,-2.0506,-2.0506,0,-2.0336,-2.035,-2.0358,-2.0378,-2.0388,-2.0401,-2.0415,-2.0424,-2.043,-2.044,-2.0455,-2.0469,-2.0485,-2.049,-2.0496,-2.0508,-2.0508,-2.051,-2.0511,-2.0514,-2.0517,-2.0519,-2.0505,-2.0505,-2.0505,-2.0506,0,0,-2.0337,-2.0364,-2.0366,-2.0375,-2.0395,-2.0406,-2.0418,-2.0435,-2.0442,-2.0455,-2.0466,-2.0484,-2.0487,-2.0496,-2.0504,-2.051,-2.0516,-2.0512,-2.0512,-2.0512,-2.0529,-2.0527,-2.0528,-2.0519,-2.052,-2.052,-2.0528,0,-2.0345,-2.0369,-2.0381,-2.0399,-2.0412,-2.0421,-2.0432,-2.0445,-2.0454,-2.0466,-2.0475,-2.0488,-2.0491,-2.0496,-2.0503,-2.0514,-2.052,-2.0514,-2.0529,-2.0529,-2.0524,-2.053,-2.0528,-2.0535,-2.0529,-2.0529,-2.053,0,-2.0358,-2.0372,-2.0392,-2.041,-2.0416,-2.0426,-2.0441,-2.0452,-2.0467,-2.0473,-2.0483,-2.049,-2.0503,-2.0503,-2.052,-2.0515,-2.0522,-2.0528,-2.0528,-2.053,-2.0529,-2.0532,-2.0538,-2.0538,-2.0532,-2.0531,-2.0531,0,-2.0356,-2.038,-2.0395,-2.0403,-2.0424,-2.0431,-2.044,-2.0454,-2.0463,-2.0476,-2.0481,-2.0495,-2.0503,-2.0513,-2.0524,-2.0523,-2.054,-2.0541,-2.0545,-2.0545,-2.0548,-2.0548,-2.0555,-2.0553,-2.0553,-2.0553,-2.0553,0,-2.0365,-2.0376,-2.0395,-2.0404,-2.0417,-2.043,-2.0442,-2.0451,-2.0464,-2.0475,-2.0483,-2.0493,-2.0506,-2.0517,-2.0525,-2.0538,-2.0541,-2.0546,-2.0548,-2.0545,-2.0545,-2.055,-2.055,-2.0553,-2.0553,-2.0553,-2.0553,0,-2.0365,-2.0378,-2.0395,-2.0413,-2.0418,-2.0427,-2.0443,-2.0452,-2.0461,-2.0474,-2.0478,-2.0493,-2.0506,-2.0518,-2.0535,-2.054,-2.0553,-2.0556,-2.0549,-2.055,-2.0553,-2.0553,-2.0564,-2.0566,-2.0562,-2.0562,-2.0562,0,-2.0369,-2.0378,-2.0398,-2.0406,-2.0415,-2.0428,-2.0437,-2.0449,-2.0458,-2.0475,-2.0482,-2.0496,-2.0508,-2.0528,-2.054,-2.0553,-2.0556,-2.0559,-2.0558,-2.0555,-2.0555,-2.0555,-2.0555,-2.0559,-2.0559,-2.0559,-2.0559,0,-2.0375,-2.0381,-2.0394,-2.0409,-2.042,-2.0432,-2.0445,-2.0451,-2.0465,-2.0474,-2.0488,-2.0498,-2.0516,-2.0529,-2.0544,-2.0552,-2.0557,-2.0559,-2.0561,-2.0558,-2.0553,-2.0555,-2.0548,-2.0559,-2.0559,-2.0559,-2.0559,-2.0559,-2.0377,-2.0386,-2.0401,-2.0415,-2.0426,-2.0437,-2.0446,-2.0457,-2.0469,-2.0485,-2.0492,-2.0506,-2.0519,-2.0539,-2.0547,-2.0558,-2.0559,-2.0561,-2.0562,-2.0562,-2.0562,-2.0551,-2.0561,-2.0561,-2.0561,-2.0561,-2.0561,0,-2.0383,-2.0394,-2.0407,-2.0424,-2.0435,-2.044,-2.0454,-2.0462,-2.0475,-2.0487,-2.0499,-2.0514,-2.0527,-2.054,-2.0554,-2.056,-2.0563,-2.0563,-2.0562,-2.0564,-2.056,-2.0557,-2.056,-2.056,-2.056,-2.056,-2.056,-2.056,-2.0388,-2.0403,-2.041,-2.043,-2.044,-2.0454,-2.0462,-2.0472,-2.0482,-2.0499,-2.051,-2.0519,-2.0531,-2.0545,-2.0557,-2.0561,-2.0565,-2.0565,-2.0568,-2.0565,-2.0564,-2.0564,-2.0562,-2.0565,-2.0565,-2.0571,-2.0571,-2.0572]}]]